Location: Central Falls
(41.8900°N, 71.3929°W)
Time: 11:39:59
(UTC+00:00)

A-11 Canister half - Pass Details

Date: 09 December 2023
Orbit: 1512 x 1687 km, 47.2° (Epoch: 20 February)

Event Time Altitude Azimuth Distance (km) Brightness Sun altitude
Rises 04:13:38 0° 240° (WSW) 4,691 - -70.2°
Reaches altitude 10° 04:16:38 10° 240° (WSW) 3,729 - -70.4°
Maximum altitude 04:26:07 87° 154° (SSE) 1,599 - -70.7°
Drops below altitude 10° 04:36:03 10° 66° (ENE) 3,878 - -70.9°
Sets 04:39:14 0° 66° (ENE) 4,887 - -70.9°
